Change the Weather History Date:

Friday, January 4, 2013

  Actual Average Record
Temperature  
Mean Temperature 32 °F 27 °F  
Max Temperature 36 °F 33 °F 60 °F (1997)
Min Temperature 28 °F 22 °F -8 °F (1981)
Degree Days  
Heating Degree Days 33 38  
Month to date heating degree days 150 151  
Since 1 July heating degree days 2254 2419  
Cooling Degree Days 0 0  
Month to date cooling degree days 0 0  
Year to date cooling degree days 0 0  
Moisture  
Dew Point 23 °F    
Average Humidity 67    
Maximum Humidity 75    
Minimum Humidity 59    
Precipitation  
Precipitation 0.00 in 0.07 in 1.44 in (1993)
Month to date precipitation T 0.30  
Year to date precipitation T 0.30  
Sea Level Pressure  
Sea Level Pressure 30.13 in    
Wind  
Wind Speed 19 mph (WSW)    
Max Wind Speed 29 mph    
Max Gust Speed 36 mph    
Visibility 10 miles    
Events      
T = Trace of Precipitation, MM = Missing Value Source: NWS Daily Summary

Daily Weather History Graph

Daily Weather History Graph

Search for Another Location

Airport or City:

Trip Planner

Search our weather history database for the weather conditions in past years. The results will help you decide how hot, cold, wet, or windy it might be!

Date:

Astronomy

Jan. 04, 2013 Rise Set
Actual Time 8:14 AM EST 5:24 PM EST
Civil Twilight 7:43 AM EST 5:56 PM EST
Nautical Twilight 7:07 AM EST 6:31 PM EST
Astronomical Twilight 6:33 AM EST 7:05 PM EST
Moon 12:08 AM EST (1/4) 11:46 AM EST (1/4)
Length of Visible Light 10h 13m
Length of Day
9h 09m
Waning Gibbous, 55% of the Moon is Illuminated
Jan 4
Waning Gibbous
Jan 4
Last Quarter
Jan 11
New
Jan 18
First Quarter
Jan 26
Full

Hourly Weather History & Observations

Time (EST) Temp. Windchill Dew Point Humidity Pressure Visibility Wind Dir Wind Speed Gust Speed Precip Events Conditions
12:53 AM 30.9 °F 19.8 °F 23.0 °F 72% 30.18 in 10.0 mi West 16.1 mph 21.9 mph N/A   Mostly Cloudy
1:53 AM 30.0 °F 17.9 °F 21.9 °F 72% 30.16 in 10.0 mi West 18.4 mph 25.3 mph N/A   Mostly Cloudy
2:43 AM 30.2 °F 17.1 °F 21.2 °F 69% 30.13 in 10.0 mi West 21.9 mph 27.6 mph N/A   Scattered Clouds
2:50 AM 30.2 °F 18.5 °F 21.2 °F 69% 30.14 in 10.0 mi West 17.3 mph 26.5 mph N/A   Mostly Cloudy
2:53 AM 30.0 °F 16.9 °F 21.9 °F 72% 30.17 in 10.0 mi West 21.9 mph 28.8 mph N/A   Mostly Cloudy
4:53 AM 28.9 °F 15.8 °F 21.0 °F 72% 30.14 in 10.0 mi WSW 20.7 mph 27.6 mph N/A   Overcast
5:53 AM 28.0 °F 14.6 °F 19.9 °F 72% 30.13 in 10.0 mi WSW 20.7 mph 25.3 mph N/A   Scattered Clouds
7:02 AM 28.4 °F 14.1 °F 21.2 °F 74% 30.11 in 10.0 mi WSW 24.2 mph 34.5 mph N/A   Mostly Cloudy
7:53 AM 28.0 °F 14.9 °F 21.0 °F 75% 30.14 in 10.0 mi WSW 19.6 mph 28.8 mph N/A   Overcast
8:28 AM 28.4 °F 15.8 °F 21.2 °F 74% 30.12 in 10.0 mi WSW 18.4 mph 32.2 mph N/A   Overcast
8:53 AM 28.9 °F 15.4 °F 21.0 °F 72% 30.15 in 10.0 mi West 21.9 mph 31.1 mph N/A   Overcast
9:53 AM 30.0 °F 16.6 °F 23.0 °F 75% 30.14 in 10.0 mi WSW 23.0 mph 34.5 mph N/A   Overcast
10:33 AM 30.2 °F 16.8 °F 23.0 °F 75% 30.10 in 10.0 mi WSW 23.0 mph 32.2 mph N/A   Overcast
10:53 AM 30.9 °F 17.2 °F 23.0 °F 72% 30.13 in 10.0 mi WSW 25.3 mph 31.1 mph N/A   Mostly Cloudy
11:53 AM 33.1 °F 19.8 °F 25.0 °F 72% 30.12 in 10.0 mi WSW 26.5 mph 35.7 mph N/A   Mostly Cloudy
12:10 PM 33.8 °F 21.3 °F 24.8 °F 70% 30.09 in 10.0 mi WSW 24.2 mph 35.7 mph N/A   Mostly Cloudy
12:53 PM 33.1 °F 20.3 °F 25.0 °F 72% 30.09 in 10.0 mi WSW 24.2 mph 31.1 mph N/A   Overcast
1:53 PM 33.1 °F 21.5 °F 25.0 °F 72% 30.08 in 10.0 mi WSW 19.6 mph 28.8 mph N/A   Overcast
2:53 PM 34.0 °F 23.0 °F 24.1 °F 67% 30.08 in 10.0 mi West 18.4 mph 31.1 mph N/A   Mostly Cloudy
3:15 PM 33.8 °F 21.9 °F 24.8 °F 70% 30.06 in 10.0 mi West 21.9 mph 29.9 mph N/A   Scattered Clouds
3:24 PM 35.6 °F 23.7 °F 24.8 °F 65% 30.06 in 10.0 mi WSW 24.2 mph 31.1 mph N/A   Mostly Cloudy
3:53 PM 35.1 °F 23.3 °F 25.0 °F 67% 30.09 in 10.0 mi WSW 23.0 mph 28.8 mph N/A   Mostly Cloudy
4:31 PM 35.6 °F 25.9 °F 24.8 °F 65% 30.08 in 10.0 mi West 16.1 mph 28.8 mph N/A   Scattered Clouds
4:53 PM 35.1 °F 25.2 °F 23.0 °F 61% 30.12 in 10.0 mi West 16.1 mph 26.5 mph N/A   Partly Cloudy
5:09 PM 35.6 °F 25.9 °F 24.8 °F 65% 30.10 in 10.0 mi West 16.1 mph 23.0 mph N/A   Mostly Cloudy
5:17 PM 35.6 °F 24.8 °F 24.8 °F 65% 30.09 in 10.0 mi West 19.6 mph 26.5 mph N/A   Scattered Clouds
5:25 PM 35.6 °F 25.9 °F 24.8 °F 65% 30.10 in 10.0 mi West 16.1 mph - N/A   Mostly Cloudy
5:43 PM 35.6 °F 25.9 °F 24.8 °F 65% 30.10 in 10.0 mi West 16.1 mph 21.9 mph N/A   Scattered Clouds
5:53 PM 34.0 °F 24.2 °F 23.0 °F 64% 30.13 in 10.0 mi West 15.0 mph - N/A   Partly Cloudy
6:53 PM 34.0 °F 24.6 °F 24.1 °F 67% 30.15 in 10.0 mi West 13.8 mph - N/A   Clear
7:53 PM 34.0 °F 25.0 °F 24.1 °F 67% 30.17 in 10.0 mi West 12.7 mph - N/A   Clear
8:53 PM 34.0 °F 24.6 °F 24.1 °F 67% 30.18 in 10.0 mi West 13.8 mph - N/A   Clear
9:53 PM 34.0 °F 24.6 °F 25.0 °F 70% 30.19 in 10.0 mi West 13.8 mph - N/A   Clear
10:53 PM 34.0 °F 25.0 °F 25.0 °F 70% 30.19 in 10.0 mi West 12.7 mph - N/A   Partly Cloudy
11:53 PM 32.0 °F 24.2 °F 25.0 °F 75% 30.20 in 10.0 mi WSW 9.2 mph - N/A   Partly Cloudy